[[{"header":{"parameterUnit":"m.s-1","parameterCategory":1,"la1":30.2991,"la2":30.254,"lo1":-89.0895,"lo2":-89.0444,"dy":0.0017,"dx":0.0017,"nx":28,"ny":28,"refTime":"2023-10-31T03:00:00:Z","depth":0,"parameterNumber":2,"parameterNumberName":"U-component_of_WINDS"},"data":[0,0,0,0,0,0,0,0,0,0,0,0,0,0,0,0,0,0,0,0,0,0,0,0,0,0,0,0,0,0,0,0,0,0,0,0,0,0,0,0,0,0,0,0,0,0,0,0,0,0,0,0,0,0,0,0,0,0,-1.9912,-1.9913,0,-1.9981,-1.9982,-1.9983,-1.9941,-1.9939,-1.9937,-1.9935,-2.0006,-2.0009,-2.0013,0,0,0,0,0,0,0,0,0,0,0,0,0,-1.9743,-1.9746,-1.9912,-1.9913,-1.9914,-1.9981,-1.9982,-1.9983,-1.9942,-1.9939,-1.9937,-1.9935,-2.0004,-2.0009,-2.0013,0,0,0,0,0,0,0,0,0,0,0,0,0,-1.9815,-1.9747,-1.9912,-1.9902,-1.9901,-1.9981,-1.9982,-1.9983,-1.9942,-1.9939,-1.9936,-1.9933,-2.0003,-2.0008,-2.0014,-2.0108,0,0,-2.0031,-2.0033,0,0,0,0,0,0,0,0,-1.9811,-1.9821,-1.9902,-1.9902,-1.9902,-1.995,-1.9948,-2.0025,-1.9943,-1.9927,-1.9935,-1.9932,-1.9989,-1.9996,-2.0015,-2.0111,-2.0114,-2.0031,-2.0035,-2.0037,-2.0039,0,0,0,0,0,0,0,-1.9806,-1.9818,-1.994,-1.9903,-1.9903,-1.9893,-1.99,-1.9962,-1.9974,-1.9928,-1.9925,-1.9934,-1.9989,-2.001,-2.0017,-2.0115,-2.0031,-2.0036,-2.004,-2.0042,-2.029,-2.0293,0,0,0,0,0,0,-1.9802,-1.9814,-1.9937,-1.9942,-1.9848,-1.9898,-1.9906,-1.9937,-1.9973,-1.9976,-1.9936,-1.9932,-2.0002,-2.001,-2.0019,-2.0131,-2.0037,-2.0042,-2.0045,-2.0287,-2.029,-2.0294,0,0,0,0,0,0,-1.9798,-1.9813,-1.9935,-1.9877,-1.9892,-1.9904,-1.994,-1.994,-1.9962,-1.9979,-1.9981,-1.9956,-2.0,-2.0011,-2.0086,-2.0132,-2.0045,-2.005,-2.0283,-2.0288,-2.0292,-2.0355,0,0,0,0,0,0,-1.9794,-1.9812,-1.9849,-1.9878,-1.9895,-2.0001,-1.9943,-1.9944,-1.9971,-1.9966,-1.9998,-2.0001,-1.9998,-2.0078,-2.0091,-2.0138,-2.0054,-2.0279,-2.0285,-2.0291,-2.0349,-2.0362,-2.0372,0,0,0,0,0,-1.9788,-1.9864,-1.9851,-1.9866,-1.9941,-2.0004,-2.0013,-2.0009,-1.9975,-2.0012,-2.0023,-2.0,-2.0125,-2.0086,-2.0101,-2.015,-2.0276,-2.0283,-2.029,-2.0344,-2.0359,-2.0372,0,0,0,0,0,0,-1.984,-1.9868,-1.9853,-1.9941,-1.9971,-1.9997,-2.0043,-2.0026,-2.0065,-2.0058,-2.0051,-2.0059,-2.0137,-2.0151,-2.0106,-2.0242,-2.0195,-2.0206,-2.023,-2.0245,-2.0257,-2.0252,-2.0059,0,0,0,0,0,-1.9861,-1.9911,-1.9932,-2.0008,-2.0023,-2.003,-2.0058,-2.0052,-2.0082,-2.0094,-2.011,-2.014,-2.0185,-2.0216,-2.0259,-2.035,-2.0356,-2.0392,-2.0403,-2.0413,-2.0422,-2.047,-2.0486,-2.0318,-2.0318,-2.0318,0,0,-1.9907,-1.9928,-1.996,-2.0019,-2.0041,-2.0091,-2.0041,-2.0097,-2.0134,-2.0102,-2.0174,-2.0187,-2.0219,-2.0302,-2.0339,-2.0316,-2.047,-2.0422,-2.043,-2.0434,-2.048,-2.0495,-2.051,-2.0323,-2.0322,-2.0321,0,0,-2.0016,-2.0037,-2.0102,-2.0124,-2.0158,-2.0162,-2.0178,-2.0206,-2.0213,-2.0285,-2.0261,-2.0305,-2.0384,-2.0408,-2.0431,-2.0546,-2.0526,-2.056,-2.0622,-2.0669,-2.0682,-2.0693,-2.0734,-2.0749,-2.0569,-2.057,-2.057,0,-2.0068,-2.0144,-2.0137,-2.0195,-2.0221,-2.0193,-2.0258,-2.0281,-2.0327,-2.0345,-2.0318,-2.0416,-2.0436,-2.0524,-2.0552,-2.0571,-2.0588,-2.0557,-2.068,-2.0692,-2.0703,-2.0742,-2.0757,-2.0574,-2.0573,-2.0573,-2.0572,0,-2.0206,-2.0259,-2.0307,-2.0352,-2.0383,-2.0444,-2.0446,-2.0478,-2.0469,-2.0476,-2.0548,-2.0571,-2.0617,-2.0637,-2.0629,-2.0724,-2.0708,-2.0681,-2.0633,-2.0723,-2.0759,-2.0774,-2.0579,-2.0578,-2.0577,-2.0576,0,0,-2.0351,-2.039,-2.0408,-2.0427,-2.0461,-2.0502,-2.0561,-2.0606,-2.0634,-2.0666,-2.0715,-2.0782,-2.0756,-2.0782,-2.0776,-2.0817,-2.0906,-2.0785,-2.0785,-2.0806,-2.101,-2.1031,-2.1048,-2.0893,-2.0895,-2.0898,-2.1007,0,-2.0461,-2.0565,-2.056,-2.0657,-2.0705,-2.0678,-2.073,-2.0756,-2.0763,-2.0804,-2.0812,-2.0859,-2.0822,-2.0837,-2.0877,-2.0887,-2.0947,-2.0879,-2.0937,-2.094,-2.0931,-2.1067,-2.1089,-2.1192,-2.1022,-2.1024,-2.1026,0,-2.0605,-2.0641,-2.0743,-2.0768,-2.0788,-2.0835,-2.0875,-2.0915,-2.0943,-2.0946,-2.0973,-2.096,-2.1019,-2.0969,-2.1049,-2.1003,-2.1026,-2.1034,-2.1038,-2.1044,-2.0988,-2.1076,-2.1224,-2.124,-2.1048,-2.1046,-2.1045,0,-2.0699,-2.0774,-2.0844,-2.0862,-2.0894,-2.0926,-2.0941,-2.0967,-2.0994,-2.1029,-2.1046,-2.1088,-2.1111,-2.1143,-2.114,-2.1105,-2.1222,-2.1172,-2.1225,-2.1225,-2.1251,-2.1249,-2.1405,-2.1266,-2.1266,-2.1265,-2.1265,0,-2.0824,-2.0887,-2.0887,-2.093,-2.1,-2.0992,-2.1061,-2.1072,-2.1095,-2.1139,-2.1118,-2.116,-2.1155,-2.1196,-2.1195,-2.1261,-2.1272,-2.1274,-2.1273,-2.1277,-2.1276,-2.1292,-2.1285,-2.127,-2.1269,-2.1268,-2.1267,0,-2.0942,-2.0945,-2.1019,-2.1043,-2.105,-2.11,-2.112,-2.116,-2.1165,-2.1221,-2.1234,-2.1242,-2.1289,-2.129,-2.1345,-2.1344,-2.1424,-2.1415,-2.1415,-2.1413,-2.1466,-2.1461,-2.1637,-2.166,-2.1506,-2.1508,-2.1509,0,-2.1021,-2.1069,-2.1097,-2.1125,-2.1142,-2.1188,-2.1215,-2.1209,-2.1239,-2.1274,-2.131,-2.1355,-2.1392,-2.1469,-2.1479,-2.1521,-2.1512,-2.1571,-2.1518,-2.1519,-2.1513,-2.151,-2.1514,-2.1581,-2.1583,-2.1585,-2.1586,0,-2.1161,-2.116,-2.12,-2.1241,-2.1274,-2.1306,-2.1335,-2.1359,-2.1357,-2.139,-2.1439,-2.1467,-2.1523,-2.1568,-2.1608,-2.1622,-2.1604,-2.1602,-2.1616,-2.162,-2.1618,-2.1619,-2.1443,-2.1598,-2.1597,-2.1596,-2.1595,-2.1595,-2.1262,-2.1303,-2.1329,-2.1374,-2.1395,-2.1423,-2.1462,-2.1471,-2.1511,-2.1556,-2.155,-2.1604,-2.1629,-2.1681,-2.1698,-2.174,-2.1719,-2.174,-2.1745,-2.1751,-2.1756,-2.1611,-2.1747,-2.1747,-2.1746,-2.1746,-2.1746,0,-2.14,-2.1416,-2.1457,-2.1499,-2.1534,-2.1513,-2.1544,-2.1575,-2.1623,-2.1648,-2.1684,-2.1739,-2.1783,-2.1795,-2.1837,-2.1868,-2.186,-2.1879,-2.1877,-2.188,-2.1772,-2.1756,-2.1884,-2.1884,-2.1884,-2.1884,-2.1884,-2.1884,-2.1477,-2.1544,-2.1546,-2.1623,-2.1638,-2.169,-2.171,-2.1735,-2.1755,-2.1817,-2.1853,-2.1861,-2.1881,-2.1924,-2.1962,-2.1965,-2.1981,-2.2003,-2.2003,-2.1902,-2.1888,-2.1875,-2.1859,-2.2007,-2.2007,-2.2107,-2.2108,-2.2108]},{"header":{"parameterUnit":"m.s-1","parameterCategory":1,"la1":30.2991,"la2":30.254,"lo1":-89.0895,"lo2":-89.0444,"dy":0.0017,"dx":0.0017,"nx":28,"ny":28,"refTime":"2023-10-31T03:00:00:Z","depth":0,"parameterNumber":3,"parameterNumberName":"V-component_of_WINDS"},"data":[0,0,0,0,0,0,0,0,0,0,0,0,0,0,0,0,0,0,0,0,0,0,0,0,0,0,0,0,0,0,0,0,0,0,0,0,0,0,0,0,0,0,0,0,0,0,0,0,0,0,0,0,0,0,0,0,0,0,-6.795,-6.7951,0,-6.806,-6.8062,-6.8063,-6.7967,-6.7963,-6.7959,-6.7955,-6.8062,-6.8068,-6.8075,0,0,0,0,0,0,0,0,0,0,0,0,0,-6.7647,-6.7653,-6.795,-6.7951,-6.7952,-6.806,-6.8062,-6.8063,-6.7967,-6.7963,-6.7958,-6.7953,-6.806,-6.8067,-6.8075,0,0,0,0,0,0,0,0,0,0,0,0,0,-6.777,-6.7655,-6.7949,-6.7918,-6.7916,-6.806,-6.8062,-6.8064,-6.7968,-6.7962,-6.7957,-6.7951,-6.8057,-6.8067,-6.8076,-6.8255,0,0,-6.8106,-6.811,0,0,0,0,0,0,0,0,-6.7763,-6.7781,-6.7921,-6.792,-6.7918,-6.7994,-6.7994,-6.8128,-6.797,-6.7948,-6.7955,-6.7948,-6.8044,-6.8054,-6.8088,-6.826,-6.8265,-6.8107,-6.8113,-6.8117,-6.812,0,0,0,0,0,0,0,-6.7755,-6.7776,-6.7993,-6.7923,-6.7922,-6.7895,-6.7906,-6.8019,-6.8027,-6.795,-6.7943,-6.7958,-6.8042,-6.8078,-6.8089,-6.8266,-6.8107,-6.8115,-6.8121,-6.8125,-6.8587,-6.8593,0,0,0,0,0,0,-6.775,-6.7769,-6.799,-6.7996,-6.7825,-6.7906,-6.7918,-6.7975,-6.8026,-6.8028,-6.7963,-6.7953,-6.8065,-6.8078,-6.8093,-6.8303,-6.8117,-6.8126,-6.8132,-6.8581,-6.8589,-6.8596,0,0,0,0,0,0,-6.7744,-6.7771,-6.7985,-6.7881,-6.7906,-6.7917,-6.7983,-6.7981,-6.8017,-6.8036,-6.8036,-6.7999,-6.8061,-6.8079,-6.8215,-6.8306,-6.8131,-6.814,-6.8573,-6.8583,-6.8592,-6.8727,0,0,0,0,0,0,-6.7736,-6.7769,-6.784,-6.7884,-6.7912,-6.8109,-6.7988,-6.7987,-6.8035,-6.8024,-6.807,-6.8072,-6.8057,-6.8201,-6.8225,-6.8316,-6.8147,-6.8565,-6.8578,-6.8589,-6.8715,-6.874,-6.8762,0,0,0,0,0,-6.7726,-6.7872,-6.7844,-6.7871,-6.8001,-6.8114,-6.813,-6.8112,-6.8043,-6.8112,-6.8124,-6.8071,-6.8292,-6.8216,-6.8242,-6.8337,-6.8559,-6.8574,-6.8588,-6.8704,-6.8735,-6.8762,0,0,0,0,0,0,-6.7837,-6.7878,-6.7846,-6.8012,-6.8061,-6.8098,-6.8184,-6.8146,-6.8213,-6.8199,-6.8171,-6.8182,-6.8326,-6.8345,-6.8259,-6.8511,-6.8414,-6.8435,-6.8494,-6.8523,-6.8547,-6.8538,-6.8155,0,0,0,0,0,-6.7881,-6.7972,-6.8002,-6.8145,-6.8171,-6.8174,-6.8223,-6.8205,-6.8252,-6.8272,-6.8293,-6.834,-6.8419,-6.8473,-6.8547,-6.8717,-6.8724,-6.8795,-6.8819,-6.8839,-6.8856,-6.8944,-6.8976,-6.8643,-6.8643,-6.8643,0,0,-6.7972,-6.8006,-6.8065,-6.8168,-6.8204,-6.8296,-6.8192,-6.8294,-6.8361,-6.8287,-6.8417,-6.8434,-6.8484,-6.8637,-6.8706,-6.8658,-6.8949,-6.8857,-6.8872,-6.8879,-6.8962,-6.8994,-6.9022,-6.8653,-6.8651,-6.8649,0,0,-6.8186,-6.8222,-6.8344,-6.8382,-6.8438,-6.8438,-6.8468,-6.8511,-6.852,-6.865,-6.8595,-6.8673,-6.8812,-6.8849,-6.8886,-6.9113,-6.9065,-6.9137,-6.9261,-6.9348,-6.9374,-6.9397,-6.9475,-6.9504,-6.9155,-6.9155,-6.9156,0,-6.8292,-6.8432,-6.8411,-6.8518,-6.8564,-6.8502,-6.8624,-6.866,-6.8737,-6.8768,-6.8714,-6.8886,-6.8915,-6.9075,-6.913,-6.9163,-6.9193,-6.9131,-6.9372,-6.9395,-6.9416,-6.949,-6.952,-6.9164,-6.9163,-6.9162,-6.9161,0,-6.8558,-6.8655,-6.8747,-6.8824,-6.888,-6.8993,-6.8988,-6.9046,-6.9023,-6.9028,-6.916,-6.9193,-6.9272,-6.9309,-6.9287,-6.9465,-6.9433,-6.9377,-6.9278,-6.9456,-6.9525,-6.9554,-6.9175,-6.9172,-6.917,-6.9168,0,0,-6.8845,-6.8909,-6.8943,-6.8976,-6.9032,-6.9105,-6.9214,-6.9294,-6.9343,-6.9397,-6.9486,-6.9605,-6.9552,-6.9594,-6.9575,-6.9651,-6.9825,-6.9584,-6.9584,-6.9626,-7.0021,-7.0062,-7.0096,-6.9795,-6.98,-6.9804,-7.0016,0,-6.9059,-6.9252,-6.9236,-6.9417,-6.9505,-6.9447,-6.9541,-6.9584,-6.9592,-6.9665,-6.9672,-6.9756,-6.9681,-6.9706,-6.9779,-6.9789,-6.9904,-6.9773,-6.9874,-6.9878,-6.9862,-7.0133,-7.0177,-7.0375,-7.0043,-7.0048,-7.0051,0,-6.9335,-6.94,-6.9591,-6.9632,-6.9668,-6.9754,-6.9824,-6.9896,-6.9942,-6.9942,-6.9989,-6.9956,-7.0063,-6.9964,-7.0109,-7.002,-7.006,-7.0071,-7.0078,-7.0086,-6.9974,-7.0145,-7.0438,-7.0468,-7.0094,-7.009,-7.0087,0,-6.9522,-6.9658,-6.9789,-6.9819,-6.9871,-6.9932,-6.9956,-6.9997,-7.0045,-7.0105,-7.0135,-7.0207,-7.0246,-7.03,-7.0287,-7.0216,-7.0434,-7.0334,-7.0434,-7.0435,-7.0482,-7.0479,-7.0784,-7.0511,-7.0511,-7.051,-7.051,0,-6.9762,-6.9881,-6.9873,-6.9954,-7.0083,-7.0063,-7.0191,-7.0207,-7.0243,-7.0323,-7.0277,-7.0352,-7.0331,-7.0405,-7.0394,-7.0514,-7.0533,-7.0533,-7.0529,-7.0537,-7.0537,-7.0562,-7.0547,-7.0518,-7.0516,-7.0515,-7.0513,0,-6.9993,-6.9994,-7.0132,-7.017,-7.0182,-7.0276,-7.0306,-7.038,-7.0384,-7.0486,-7.0508,-7.0513,-7.0598,-7.059,-7.0684,-7.0677,-7.0825,-7.0805,-7.0811,-7.0805,-7.0905,-7.0895,-7.1236,-7.1278,-7.098,-7.0983,-7.0985,0,-7.0146,-7.0235,-7.0283,-7.0334,-7.0363,-7.0446,-7.0495,-7.0477,-7.053,-7.0588,-7.0655,-7.0735,-7.0799,-7.0935,-7.0946,-7.1017,-7.0997,-7.1111,-7.1007,-7.1011,-7.0996,-7.099,-7.0998,-7.1131,-7.1135,-7.1137,-7.114,0,-7.0415,-7.0411,-7.0485,-7.0558,-7.0618,-7.0675,-7.0726,-7.077,-7.0757,-7.0818,-7.0904,-7.0954,-7.105,-7.1129,-7.1197,-7.1218,-7.1176,-7.1173,-7.1199,-7.1207,-7.1206,-7.1206,-7.0864,-7.1164,-7.1162,-7.116,-7.1159,-7.1158,-7.061,-7.0686,-7.0732,-7.0814,-7.0851,-7.09,-7.0971,-7.0984,-7.1057,-7.1135,-7.112,-7.1216,-7.1257,-7.1344,-7.1372,-7.1445,-7.1403,-7.1442,-7.1452,-7.1461,-7.1472,-7.1196,-7.1457,-7.1457,-7.1456,-7.1455,-7.1455,0,-7.0875,-7.0902,-7.0978,-7.1052,-7.1116,-7.1074,-7.1128,-7.1184,-7.127,-7.1313,-7.1377,-7.1475,-7.1551,-7.1568,-7.164,-7.1695,-7.1678,-7.1715,-7.1709,-7.1714,-7.1506,-7.1475,-7.1728,-7.1728,-7.1728,-7.1727,-7.1727,-7.1727,-7.1021,-7.1147,-7.1148,-7.129,-7.1314,-7.1411,-7.1445,-7.1488,-7.1522,-7.1635,-7.1699,-7.171,-7.1741,-7.1815,-7.1882,-7.1885,-7.1912,-7.1957,-7.1952,-7.1757,-7.1729,-7.1703,-7.1674,-7.1964,-7.1964,-7.2153,-7.2155,-7.2156]}]]